Jackson, MI

6:59 AM EDT on July 19, 2019 (GMT -0400)
Jackson County-Reynolds

Weather History for KJXN - May, 2019

Change the Weather History Date:

Friday, May 10, 2019

  Actual Average Record
Temperature  
Mean Temperature 52 °F 56 °F  
Max Temperature 58 °F 67 °F 86 °F (1979)
Min Temperature 45 °F 44 °F 21 °F (1966)
Degree Days  
Heating Degree Days 13 10  
Month to date heating degree days 103 110  
Since 1 July heating degree days 6500 6456  
Cooling Degree Days 0 1  
Month to date cooling degree days 0 3  
Year to date cooling degree days 0 9  
Moisture  
Dew Point 41 °F    
Average Humidity 69    
Maximum Humidity 86    
Minimum Humidity 51    
Precipitation  
Precipitation 0.00 in 0.10 in 1.58 in (1981)
Month to date precipitation 0.90 1.00  
Year to date precipitation 9.14 8.29  
Sea Level Pressure  
Sea Level Pressure 30.00 in    
Wind  
Wind Speed 8 mph (West)    
Max Wind Speed 17 mph    
Max Gust Speed 28 mph    
Visibility 10 miles    
Events      
T = Trace of Precipitation, MM = Missing Value Source: NWS Daily Summary

Daily Weather History Graph

Daily Weather History Graph

Search for Another Location

Airport or City:

Astronomy

May. 10, 2019 Rise Set
Actual Time 6:22 AM EDT 8:46 PM EDT
Civil Twilight 5:50 AM EDT 9:18 PM EDT
Nautical Twilight 5:11 AM EDT 9:57 PM EDT
Astronomical Twilight 4:28 AM EDT 10:41 PM EDT
Moon 11:19 AM EDT (5/10) 1:40 AM EDT (5/10)
Length of Visible Light 15h 27m
Length of Day
14h 24m
Waxing Crescent, 35% of the Moon is Illuminated
May 10
Waxing Crescent
May 11
First Quarter
May 18
Full
May 26
Last Quarter
Jun 3
New

Hourly Weather History & Observations

Time (EDT) Temp. Windchill Dew Point Humidity Pressure Visibility Wind Dir Wind Speed Gust Speed Precip Events Conditions
12:56 AM 54.0 °F - 46.9 °F 77% 29.86 in 10.0 mi West 6.9 mph - N/A   Overcast
1:56 AM 52.0 °F - 45.0 °F 77% 29.86 in 10.0 mi West 9.2 mph - N/A   Overcast
2:56 AM 50.0 °F - 44.1 °F 80% 29.86 in 10.0 mi WSW 9.2 mph - N/A   Mostly Cloudy
3:56 AM 50.0 °F - 45.0 °F 83% 29.87 in 10.0 mi WSW 6.9 mph - N/A   Overcast
4:56 AM 48.9 °F - 44.1 °F 83% 29.89 in 10.0 mi WSW 9.2 mph - N/A   Overcast
5:47 AM 48.0 °F - 44.1 °F 86% 29.91 in 10.0 mi West 8.1 mph - N/A   Overcast
5:56 AM 48.0 °F - 44.1 °F 86% 29.91 in 10.0 mi West 8.1 mph - N/A   Overcast
6:18 AM 46.9 °F - 43.0 °F 86% 29.92 in 10.0 mi WSW 9.2 mph - N/A   Overcast
6:44 AM 46.9 °F - 43.0 °F 86% 29.93 in 10.0 mi WSW 8.1 mph - N/A   Overcast
6:56 AM 46.9 °F - 43.0 °F 86% 29.94 in 10.0 mi WSW 5.8 mph - N/A   Overcast
7:12 AM 46.9 °F - 43.0 °F 86% 29.95 in 10.0 mi WSW 10.4 mph - N/A   Overcast
7:53 AM 46.4 °F 40.4 °F 42.8 °F 87% 29.97 in 10.0 mi WSW 13.8 mph - N/A   Overcast
7:56 AM 46.9 °F - 42.1 °F 83% 29.98 in 10.0 mi SW 8.1 mph 21.9 mph N/A   Overcast
8:08 AM 46.9 °F - 42.1 °F 83% 29.95 in 10.0 mi West 12.7 mph 23.0 mph N/A   Overcast
8:28 AM 48.0 °F - 42.1 °F 80% 29.95 in 10.0 mi West 11.5 mph 20.7 mph N/A   Overcast
8:56 AM 48.0 °F - 42.1 °F 80% 29.97 in 10.0 mi West 10.4 mph 20.7 mph N/A   Overcast
9:56 AM 48.0 °F - 39.9 °F 74% 30.00 in 10.0 mi West 12.7 mph 21.9 mph N/A   Overcast
10:56 AM 50.0 °F - 39.9 °F 68% 30.02 in 10.0 mi WSW 13.8 mph 18.4 mph N/A   Mostly Cloudy
11:30 AM 50.0 °F - 37.9 °F 63% 30.03 in 10.0 mi WSW 16.1 mph 27.6 mph N/A   Overcast
11:56 AM 50.0 °F - 37.9 °F 63% 30.05 in 10.0 mi West 10.4 mph 21.9 mph N/A   Overcast
12:56 PM 50.0 °F - 37.0 °F 61% 30.06 in 10.0 mi West 11.5 mph 21.9 mph N/A   Overcast
1:56 PM 51.1 °F - 37.0 °F 59% 30.07 in 10.0 mi WSW 10.4 mph 21.9 mph N/A   Overcast
2:56 PM 54.0 °F - 37.0 °F 53% 30.07 in 10.0 mi West 11.5 mph 17.3 mph N/A   Mostly Cloudy
3:56 PM 55.9 °F - 37.0 °F 49% 30.08 in 10.0 mi Variable 6.9 mph - N/A   Scattered Clouds
4:56 PM 55.9 °F - 37.0 °F 49% 30.08 in 10.0 mi WNW 9.2 mph - N/A   Scattered Clouds
5:56 PM 55.9 °F - 37.0 °F 49% 30.09 in 10.0 mi West 6.9 mph - N/A   Clear
6:56 PM 55.0 °F - 37.0 °F 51% 30.11 in 10.0 mi West 5.8 mph - N/A   Scattered Clouds
7:56 PM 53.1 °F - 37.0 °F 55% 30.12 in 10.0 mi West 4.6 mph - N/A   Scattered Clouds
8:56 PM 52.0 °F - 37.0 °F 57% 30.14 in 10.0 mi West 4.6 mph - N/A   Partly Cloudy
9:56 PM 50.0 °F - 37.9 °F 63% 30.15 in 10.0 mi WNW 6.9 mph - N/A   Clear
10:56 PM 48.0 °F - 37.0 °F 66% 30.16 in 10.0 mi WNW 5.8 mph - N/A   Clear
11:56 PM 46.0 °F 42.5 °F 37.0 °F 71% 30.17 in 10.0 mi WNW 6.9 mph - N/A   Clear